Chehalis, WA

6:16 AM PDT on September 26, 2017 (GMT -0700)
Chehalis-Centralia

Weather History for KCLS - November, 2013

Change the Weather History Date:

Friday, November 8, 2013

  Actual Average (KTDO) Record (KTDO)
Temperature  
Mean Temperature 48 °F -  
Max Temperature 55 °F 53 °F 64 °F (1996)
Min Temperature 41 °F 40 °F 19 °F (2001)
Degree Days  
Heating Degree Days 17    
Moisture  
Dew Point 44 °F    
Average Humidity 89    
Maximum Humidity 100    
Minimum Humidity 58    
Precipitation  
Precipitation 0.01 in - - ()
Sea Level Pressure  
Sea Level Pressure 30.16 in    
Wind  
Wind Speed 5 mph (SSW)    
Max Wind Speed 7 mph    
Max Gust Speed -    
Visibility 8 miles    
Events Fog , Rain    
Averages and records for this station are not official NWS values.
T = Trace of Precipitation, MM = Missing Value Source: NWS Daily Summary

Daily Weather History Graph

Daily Weather History Graph

Search for Another Location

Airport or City:

Trip Planner

Search our weather history database for the weather conditions in past years. The results will help you decide how hot, cold, wet, or windy it might be!

Date:

Astronomy

Nov. 08, 2013 Rise Set
Actual Time 7:04 AM PST 4:46 PM PST
Civil Twilight 6:32 AM PST 5:18 PM PST
Nautical Twilight 5:56 AM PST 5:54 PM PST
Astronomical Twilight 5:20 AM PST 6:29 PM PST
Moon 12:04 PM PST (11/8) 10:14 PM PST (11/8)
Length of Visible Light 10h 46m
Length of Day
9h 41m
Waxing Crescent, 34% of the Moon is Illuminated
Nov 8
Waxing Crescent
Nov 9
First Quarter
Nov 17
Full
Nov 25
Last Quarter
Dec 2
New

Hourly Weather History & Observations

Time (PST) Temp. Windchill Dew Point Humidity Pressure Visibility Wind Dir Wind Speed Gust Speed Precip Events Conditions
12:15 AM 48.2 °F - 44.6 °F 87% 30.09 in 9.0 mi WSW 6.9 mph - N/A   Scattered Clouds
12:35 AM 48.2 °F - 44.6 °F 87% 30.10 in 10.0 mi WSW 4.6 mph - N/A   Clear
12:55 AM 48.2 °F - 44.6 °F 87% 30.11 in 3.0 mi SW 6.9 mph - N/A Rain Light Rain
1:15 AM 48.2 °F - 44.6 °F 87% 30.11 in 9.0 mi SW 4.6 mph - N/A   Mostly Cloudy
1:35 AM 48.2 °F - 44.6 °F 87% 30.11 in 9.0 mi SSW 4.6 mph - N/A   Scattered Clouds
1:55 AM 46.4 °F 42.9 °F 44.6 °F 93% 30.11 in 5.0 mi SSW 6.9 mph - N/A Rain Light Rain
2:15 AM 46.4 °F 44.3 °F 46.4 °F 100% 30.12 in 9.0 mi SSW 4.6 mph - N/A   Mostly Cloudy
2:35 AM 46.4 °F 45.2 °F 44.6 °F 93% 30.12 in 10.0 mi SW 3.5 mph - N/A   Scattered Clouds
2:55 AM 46.4 °F 43.5 °F 44.6 °F 93% 30.13 in 8.0 mi WSW 5.8 mph - N/A   Clear
3:15 AM 48.2 °F - 44.6 °F 87% 30.13 in 5.0 mi West 5.8 mph - N/A Rain Light Rain
3:35 AM 46.4 °F 44.3 °F 44.6 °F 93% 30.12 in 10.0 mi SW 4.6 mph - 0.01 in   Overcast
3:55 AM 46.4 °F 42.9 °F 44.6 °F 93% 30.12 in 10.0 mi WSW 6.9 mph - 0.01 in   Mostly Cloudy
4:15 AM 46.4 °F 44.3 °F 44.6 °F 93% 30.13 in 10.0 mi WSW 4.6 mph - N/A   Mostly Cloudy
4:35 AM 46.4 °F 44.3 °F 44.6 °F 93% 30.13 in 9.0 mi WSW 4.6 mph - N/A   Mostly Cloudy
4:55 AM 46.4 °F 43.5 °F 44.6 °F 93% 30.13 in 10.0 mi SW 5.8 mph - N/A   Mostly Cloudy
5:15 AM 46.4 °F 45.2 °F 44.6 °F 93% 30.14 in 8.0 mi South 3.5 mph - N/A   Overcast
5:35 AM 46.4 °F 45.2 °F 44.6 °F 93% 30.14 in 7.0 mi South 3.5 mph - N/A   Overcast
5:55 AM 46.4 °F 43.5 °F 44.6 °F 93% 30.15 in 9.0 mi South 5.8 mph - N/A   Overcast
6:15 AM 46.4 °F 43.5 °F 44.6 °F 93% 30.15 in 10.0 mi South 5.8 mph - N/A   Overcast
6:35 AM 46.4 °F 45.2 °F 44.6 °F 93% 30.15 in 10.0 mi South 3.5 mph - N/A   Overcast
6:55 AM 46.4 °F 42.9 °F 44.6 °F 93% 30.15 in 10.0 mi South 6.9 mph - N/A   Overcast
7:15 AM 46.4 °F 44.3 °F 44.6 °F 93% 30.16 in 10.0 mi South 4.6 mph - N/A   Overcast
7:35 AM 46.4 °F 45.2 °F 44.6 °F 93% 30.16 in 10.0 mi South 3.5 mph - N/A   Overcast
7:55 AM 46.4 °F 44.3 °F 44.6 °F 93% 30.17 in 10.0 mi SSW 4.6 mph - N/A   Overcast
8:15 AM 46.4 °F 44.3 °F 44.6 °F 93% 30.17 in 10.0 mi SSW 4.6 mph - N/A   Overcast
8:35 AM 48.2 °F - 44.6 °F 87% 30.18 in 10.0 mi WSW 3.5 mph - N/A   Overcast
8:55 AM 48.2 °F - 44.6 °F 87% 30.18 in 10.0 mi SSW 4.6 mph - N/A   Overcast
9:15 AM 48.2 °F - 44.6 °F 87% 30.18 in 10.0 mi South 5.8 mph - N/A   Overcast
9:35 AM 48.2 °F - 44.6 °F 87% 30.19 in 10.0 mi South 4.6 mph - N/A   Overcast
9:55 AM 50.0 °F - 44.6 °F 82% 30.19 in 10.0 mi South 4.6 mph - N/A   Overcast
10:15 AM 50.0 °F - 44.6 °F 82% 30.19 in 7.0 mi South 5.8 mph - N/A   Mostly Cloudy
10:35 AM 50.0 °F - 46.4 °F 87% 30.18 in 9.0 mi South 5.8 mph - N/A   Overcast
10:55 AM 50.0 °F - 44.6 °F 82% 30.19 in 10.0 mi SW 4.6 mph - N/A   Partly Cloudy
11:15 AM 53.6 °F - 44.6 °F 72% 30.18 in 10.0 mi South 4.6 mph - N/A   Clear
11:35 AM 53.6 °F - 44.6 °F 72% 30.17 in 5.0 mi SW 5.8 mph - N/A   Haze
11:55 AM 53.6 °F - 44.6 °F 72% 30.17 in 5.0 mi SW 4.6 mph - N/A   Haze
12:15 PM 53.6 °F - 44.6 °F 72% 30.17 in 9.0 mi SW 4.6 mph - N/A   Partly Cloudy
12:35 PM 53.6 °F - 44.6 °F 72% 30.16 in 9.0 mi SW 6.9 mph - N/A   Mostly Cloudy
12:55 PM 53.6 °F - 44.6 °F 72% 30.16 in 8.0 mi SSW 6.9 mph - N/A   Scattered Clouds
1:15 PM 55.4 °F - 41.0 °F 58% 30.16 in 7.0 mi SW 4.6 mph - N/A   Scattered Clouds
1:35 PM 53.6 °F - 42.8 °F 67% 30.16 in 10.0 mi SW 4.6 mph - N/A   Partly Cloudy
1:55 PM 55.4 °F - 44.6 °F 67% 30.16 in 10.0 mi SW 4.6 mph - N/A   Partly Cloudy
2:15 PM 55.4 °F - 44.6 °F 67% 30.16 in 10.0 mi South 5.8 mph - N/A   Mostly Cloudy
2:35 PM 55.4 °F - 44.6 °F 67% 30.16 in 10.0 mi South 5.8 mph - N/A   Overcast
2:55 PM 53.6 °F - 46.4 °F 77% 30.16 in 7.0 mi South 4.6 mph - N/A   Mostly Cloudy
3:15 PM 50.0 °F - 44.6 °F 82% 30.16 in 9.0 mi SSE 4.6 mph - N/A   Mostly Cloudy
3:35 PM 50.0 °F - 44.6 °F 82% 30.16 in 8.0 mi South 5.8 mph - N/A   Scattered Clouds
3:55 PM 50.0 °F - 44.6 °F 82% 30.16 in 10.0 mi South 5.8 mph - N/A   Clear
4:15 PM 50.0 °F - 44.6 °F 82% 30.16 in 10.0 mi South 4.6 mph - N/A   Clear
4:35 PM 48.2 °F - 46.4 °F 93% 30.16 in 10.0 mi Calm Calm - N/A   Clear
4:55 PM 48.2 °F - 46.4 °F 93% 30.17 in 10.0 mi SW 3.5 mph - N/A   Scattered Clouds
5:15 PM 48.2 °F - 46.4 °F 93% 30.16 in 10.0 mi Calm Calm - N/A   Overcast
5:35 PM 48.2 °F - 46.4 °F 93% 30.17 in 10.0 mi WSW 3.5 mph - N/A   Overcast
5:55 PM 46.4 °F - 46.4 °F 100% 30.16 in 10.0 mi Calm Calm - N/A   Overcast
6:15 PM 46.4 °F 45.2 °F 44.6 °F 93% 30.16 in 10.0 mi WSW 3.5 mph - N/A   Scattered Clouds
6:35 PM 44.6 °F - 44.6 °F 100% 30.17 in 10.0 mi Calm Calm - N/A   Clear
6:55 PM 44.6 °F - 44.6 °F 100% 30.17 in 9.0 mi Calm Calm - N/A   Clear
7:15 PM 44.6 °F 43.1 °F 44.6 °F 100% 30.17 in 10.0 mi West 3.5 mph - N/A   Mostly Cloudy
7:35 PM 44.6 °F - 44.6 °F 100% 30.18 in 10.0 mi Calm Calm - N/A   Overcast
7:55 PM 44.6 °F - 44.6 °F 100% 30.18 in 10.0 mi Calm Calm - N/A   Overcast
8:15 PM 46.4 °F - 44.6 °F 93% 30.17 in 10.0 mi Calm Calm - N/A   Overcast
8:35 PM 44.6 °F - 44.6 °F 100% 30.18 in 9.0 mi Calm Calm - N/A   Overcast
8:55 PM 44.6 °F - 44.6 °F 100% 30.18 in 7.0 mi Calm Calm - N/A   Overcast
9:15 PM 42.8 °F - 42.8 °F 100% 30.18 in 9.0 mi Calm Calm - N/A   Mostly Cloudy
9:35 PM 42.8 °F - 42.8 °F 100% 30.17 in 9.0 mi Calm Calm - N/A   Mostly Cloudy
9:55 PM 41.0 °F - 41.0 °F 100% 30.18 in 1.0 mi Calm Calm - N/A   Overcast
10:15 PM 41.0 °F - 41.0 °F 100% 30.18 in 5.0 mi Calm Calm - N/A   Mostly Cloudy
10:35 PM 41.0 °F - 41.0 °F 100% 30.18 in 9.0 mi Calm Calm - N/A   Mostly Cloudy
10:55 PM 41.0 °F - 41.0 °F 100% 30.18 in 0.2 mi Calm Calm - N/A Fog Fog
11:15 PM 41.0 °F - 41.0 °F 100% 30.17 in 0.5 mi Calm Calm - N/A Fog Fog
11:35 PM 41.0 °F - 41.0 °F 100% 30.17 in 0.2 mi Calm Calm - N/A Fog Fog
11:55 PM 41.0 °F - 41.0 °F 100% 30.17 in 0.2 mi Calm Calm - N/A Fog Fog